Probability
0 0 0 0 0 0 0 0 0 0 0 0 0 0 0 0 0 0 0 0 0 0 0 0 0 0 0 0 0 0 0 0 0 0 0 0 0 0 0 0 0 0 0
0 0 0 0 0 0 0 0 0 0 0 0 0 0 0 0 0 0 0 0 0 0 0 0 0 0 0 0 0 0 0 0 0 0 0 0 0 0 0 0 0 0 0
0 0 0 0 0 0 0 0 0 0 0 0 0 0 0 0 0 0 0 0 0 0 0 0 0 0 0 0 0 0 0 0 0 0 0 0 0 0 0 0 0 0 0
0 0 0 0 0 0 0 0 0 0 0 0 0 0 0 0 0 0 0 0 0 0 0 0 0 0 0 0 0 0 0 0 0 0 0 0 0 0 0 0 0 0 0
0 0 0 0 0 0 0 0 0 0 0 0 0 0 0 0 0 0 0 0 0 0 0 0 0 0 0 0 0 0 0 0 0 0 0 0 0 0 0 0 0 0 0
0 0 0 0 0 0 0 0 0 0 0 0 0 0 0 0 0 0 0 0 0 0 0 0 0 0 0 0 0 0 0 0 0 0 0 0 0 0 0 0 0 0 0
0 0 0 0 0 0 0 0 0 0 0 0 0 0 0 0 0 0 0 0 0 0 0 0 0 0 0 0 0 0 0 0 0 0 0 0 0 0 0 0 0 0 0
0 0 0 0 0 0 0 0 0 0 0 0 0 0 0 0 0 0 0 0 0 0 0 0 0 0 0 0 0 0 0 0 0 0 0 0 0 0 0 0 0 0 0
0 0 0 0 0 0 0 0 0 0 0 0 0 0 0 0 0 0 0 0 0 0 0 0 0 0 0 0 0 0 0 0 0 0 0 0 0 0 0 0 0 0 0
0 0 0 0 0 0 0 0 0 0 0 0 0 0 0 0 0 0 0 0 0 0 0 0 0 0 0 0 0 0 0 0 0 0 0 0 0 0 0 0 0 0 0
0 0 0 0 0 0 0 0 0 0 0 0 0 0 0 0 0 0 0 0 0 0 0 0 0 0 0 0 0 0 0 0 0 0 0 0 0 0 0 0 0 0 0
0 0 0 0 0 0 0 0 0 0 0 0 0 0 0 0 0 0 0 0 0 0 0 0 0 0 0 0 0 0 0 0 0 0 0 0 0 0 0 0 0 0 0
0 0 0 0 0 0 0 0 0 0 0 0 0 0 0 0 0 0 0 0 0 0 0 0 0 0 0 0 0 0 0 0 0 0 0 0 0 0 0 0 0 0 0
0 0 0 0 0 0 0 0 0 0 0 0 0 0 0 0 0 0 0 0 0 0 0 0 0 0 0 0 0 0 0 0 0 0 0 0 0 0 0 0 0 0 0
0 0 0 0 0 0 0 0 0 0 0 0 0 0 0 0 0 0 0 0 0 0 0 0 0 0 0 0 0 0 0 0 0 0 0 0 0 0 0 0 0 0 0
0 0 0 0 0 0 0 0 0 0 0 0 0 0 0 0 0 0 0 0 0 0 0 0 0 0 0 0 0 0 0 0 0 0 0 0 0 0 0 0 0 0 0
0 0 0 0 0 0 0 0 0 0 0 0 0 0 0 0 0 0 0 0 0 0 0 0 0 0 0 0 0 0 0 0 0 0 0 0 0 0 0 0 0 0 0
0 0 0 0 0 0 0 0 0 0 0 0 0 0 0 0 0 0 0 0 0 0 0 0 0 0 0 0 0 0 0 0 0 0 0 0 0 0 0 0 0 0 0
0 0 0 0 0 0 0 0 0 0 0 0 0 0 0 0 0 0 0 0 0 0 0 0 0 0 0 0 0 0 0 0 0 0 0 0 0 0 0 0 0 0 0
0 0 0 0 0 0 0 0 0 0 0 0 0 0 0 0 0 0 0 0 0 0 0 0 0 0 0 0 0 0 0 0 0 0 0 0 0 0 0 0 0 0 0
0 0 0 0 0 0 0 0 0 0 0 0 0 0 0 0 0 0 0 0 0 0 0 0 0 0 0 0 0 0 0 0 0 0 0 0 0 0 0 0 0 0 0
0 0 0 0 0 0 0 0 0 0 0 0 0 0 0 0 0 0 0 0 0 0 0 0 0 0 0 0 0 0 0 0 0 0 0 0 0 0 0 0 0 0 0
0 0 0 0 0 0 0 0 0 0 0 0 0 0 0 0 0 0 0 0 0 0 0 0 0 0 0 0 0 0 0 0 0 0 0 0 0 0 0 0 0 0 0
0 0 0 0 0 0 0 0 0 0 0 0 0 0 0 0 0 0 0 0 0 0 0 0 0 0 0 0 0 0 0 0 0 0 0 0 0 0 0 0 0 0 0
0 0 0 0 0 0 0 0 0 0 0 0 0 0 0 0 0 0 0 0 0 0 0 0 0 0 0 0 0 0 0 0 0 0 0 0 0 0 0 0 0 0 0
0 0 0 0 0 0 0 0 0 0 0 0 0 0 0 0 0 0 0 0 0 0 0 0 0 0 0 0 0 0 0 0 0 0 0 0 0 0 0 0 0 0 0
Height
5702 5706 5710 5713 5717 5720 5723 5725 5728 5730 5732 5734 5736 5737 5738 5739 5740 5741 5741 5740 5740 5739 5739 5738 5737 5736 5734 5733 5731 5729 5727 5725 5724 5723 5721 5718 5715 5713 5711 5709 5707 5705 5703
5692 5696 5700 5703 5707 5710 5712 5715 5717 5719 5721 5723 5725 5726 5727 5729 5729 5730 5730 5730 5729 5729 5728 5727 5726 5724 5723 5721 5719 5718 5716 5714 5713 5711 5709 5707 5705 5702 5700 5698 5696 5694 5693
5682 5686 5690 5693 5697 5699 5702 5705 5707 5709 5711 5713 5714 5716 5717 5718 5718 5719 5719 5719 5718 5717 5717 5716 5714 5713 5711 5710 5708 5706 5704 5702 5701 5699 5697 5696 5694 5692 5690 5688 5686 5684 5682
5672 5676 5680 5683 5686 5689 5692 5694 5697 5699 5700 5702 5703 5705 5706 5707 5707 5708 5708 5707 5707 5706 5705 5704 5703 5702 5700 5698 5697 5695 5693 5691 5689 5688 5686 5684 5682 5680 5679 5677 5675 5674 5673
5662 5666 5669 5672 5675 5678 5681 5684 5686 5688 5689 5691 5692 5694 5695 5696 5696 5696 5696 5696 5695 5695 5694 5693 5691 5690 5688 5687 5685 5683 5681 5680 5678 5676 5675 5673 5671 5670 5668 5666 5665 5664 5663
5652 5655 5658 5662 5665 5668 5670 5673 5675 5677 5679 5680 5681 5683 5683 5684 5685 5685 5685 5685 5684 5683 5682 5681 5680 5678 5677 5675 5673 5671 5670 5668 5667 5665 5664 5662 5661 5659 5657 5656 5655 5654 5654
5641 5645 5648 5651 5653 5656 5659 5662 5664 5666 5668 5669 5670 5671 5672 5673 5673 5674 5673 5673 5673 5672 5671 5670 5669 5667 5665 5664 5662 5660 5658 5657 5656 5654 5653 5651 5650 5649 5647 5646 5645 5644 5644
5630 5634 5637 5640 5643 5646 5648 5651 5653 5655 5657 5658 5659 5660 5661 5662 5662 5662 5662 5662 5661 5661 5660 5659 5657 5656 5654 5653 5651 5649 5647 5646 5645 5643 5642 5641 5639 5638 5637 5637 5636 5635 5634
5620 5623 5626 5629 5632 5635 5638 5640 5642 5644 5646 5647 5648 5649 5650 5651 5651 5652 5652 5651 5651 5650 5649 5648 5647 5645 5644 5642 5640 5639 5637 5635 5634 5632 5631 5630 5629 5628 5627 5626 5626 5625 5625
5610 5613 5616 5619 5622 5625 5627 5629 5632 5633 5635 5636 5638 5639 5639 5640 5641 5641 5641 5640 5640 5639 5638 5637 5636 5634 5633 5631 5630 5628 5626 5625 5623 5622 5620 5619 5618 5618 5617 5617 5616 5616 5615
5600 5603 5606 5609 5612 5614 5617 5619 5621 5623 5625 5626 5627 5628 5629 5629 5630 5630 5630 5629 5629 5628 5627 5626 5625 5623 5622 5620 5619 5617 5616 5614 5613 5611 5610 5609 5608 5608 5607 5607 5607 5606 5606
5590 5593 5596 5599 5601 5604 5606 5608 5610 5612 5614 5615 5616 5617 5617 5618 5619 5619 5619 5619 5618 5617 5616 5615 5614 5613 5611 5610 5608 5607 5605 5604 5603 5601 5601 5600 5599 5598 5598 5597 5597 5597 5597
5580 5583 5586 5588 5590 5593 5595 5598 5599 5601 5602 5603 5605 5606 5606 5607 5607 5608 5608 5608 5607 5607 5606 5605 5603 5602 5601 5599 5598 5596 5595 5594 5593 5592 5591 5590 5590 5589 5589 5588 5588 5588 5588
5570 5573 5575 5578 5580 5582 5584 5586 5588 5590 5591 5593 5594 5595 5595 5596 5597 5597 5597 5597 5596 5596 5595 5594 5593 5591 5590 5589 5588 5586 5585 5584 5583 5582 5581 5581 5580 5580 5579 5579 5579 5579 5578
5561 5563 5565 5567 5569 5572 5574 5575 5577 5579 5580 5582 5583 5584 5585 5585 5586 5586 5586 5586 5585 5585 5584 5583 5582 5581 5580 5579 5577 5576 5575 5574 5574 5573 5572 5571 5571 5570 5570 5570 5569 5569 5569
5551 5553 5555 5557 5559 5561 5563 5564 5566 5568 5569 5571 5572 5573 5574 5574 5575 5575 5575 5574 5574 5574 5573 5572 5571 5570 5569 5568 5567 5566 5566 5565 5564 5563 5562 5562 5561 5561 5560 5560 5560 5559 5559
5541 5543 5545 5546 5548 5550 5552 5554 5555 5557 5558 5559 5561 5562 5563 5563 5563 5563 5563 5563 5563 5563 5562 5561 5561 5560 5559 5558 5557 5556 5556 5555 5554 5554 5553 5552 5552 5551 5551 5550 5550 5550 5549
5531 5533 5534 5536 5538 5539 5541 5543 5544 5546 5547 5548 5550 5550 5551 5552 5552 5552 5552 5552 5552 5552 5551 5551 5550 5549 5548 5548 5547 5546 5545 5545 5544 5543 5543 5542 5542 5541 5540 5540 5540 5539 5539
5522 5523 5524 5526 5527 5529 5530 5532 5533 5535 5536 5537 5538 5539 5540 5540 5541 5541 5541 5541 5541 5541 5540 5539 5539 5538 5538 5537 5536 5536 5535 5534 5534 5533 5532 5532 5531 5530 5530 5529 5529 5528 5528
5511 5513 5514 5515 5516 5518 5519 5521 5522 5523 5525 5526 5527 5527 5528 5529 5529 5530 5530 5530 5530 5529 5529 5528 5528 5527 5527 5526 5525 5525 5524 5524 5523 5522 5521 5521 5520 5520 5519 5518 5518 5517 5517
5501 5502 5503 5504 5506 5507 5508 5510 5511 5512 5513 5514 5515 5516 5517 5518 5518 5518 5518 5518 5518 5518 5518 5517 5517 5516 5516 5515 5515 5514 5513 5512 5512 5511 5510 5510 5509 5508 5508 5507 5507 5506 5505
5490 5491 5493 5494 5495 5496 5497 5498 5499 5501 5502 5503 5504 5505 5506 5506 5507 5507 5507 5507 5507 5507 5506 5506 5506 5505 5504 5504 5503 5502 5502 5501 5500 5499 5498 5498 5497 5497 5496 5495 5495 5494 5493
5479 5480 5481 5482 5483 5484 5486 5487 5488 5489 5491 5492 5493 5493 5494 5495 5495 5496 5496 5496 5495 5495 5495 5494 5494 5493 5493 5492 5491 5491 5490 5489 5488 5487 5486 5486 5485 5484 5483 5483 5482 5481 5480
5468 5469 5470 5471 5472 5473 5474 5475 5476 5477 5479 5480 5481 5482 5483 5483 5484 5484 5484 5484 5484 5484 5483 5483 5482 5482 5481 5480 5479 5478 5478 5476 5475 5474 5474 5473 5472 5472 5471 5470 5469 5468 5467
5457 5458 5459 5460 5460 5461 5462 5463 5464 5465 5466 5468 5469 5470 5471 5471 5472 5472 5472 5472 5472 5472 5471 5471 5470 5469 5469 5468 5467 5466 5465 5464 5463 5462 5461 5460 5459 5458 5458 5457 5456 5454 5453
5447 5447 5448 5449 5449 5450 5451 5452 5452 5453 5454 5455 5456 5457 5458 5459 5460 5460 5460 5461 5460 5460 5459 5459 5458 5457 5456 5455 5454 5453 5452 5451 5450 5449 5448 5447 5446 5445 5444 5443 5441 5440 5439
Wind_Speed
48 48 48 48 47 46 45 44 44 45 47 47 46 46 46 44 44 46 47 46 46 46 46 46 47 47 47 47 47 48 48 48 48 47 46 46 45 45 44 43 42 41 40
48 47 47 48 48 46 45 44 44 45 46 46 46 46 47 47 47 47 47 47 46 46 46 46 46 46 46 47 47 47 47 47 47 46 46 45 44 43 42 42 41 40 40
47 47 47 47 47 47 47 46 46 46 46 47 48 48 47 46 46 46 46 46 46 46 46 46 47 46 46 46 46 46 46 46 46 46 45 44 44 43 43 42 40 39 38
47 47 48 48 48 49 49 49 48 48 46 46 46 47 47 47 47 47 47 47 47 46 46 46 46 46 46 45 45 45 45 45 45 45 45 44 43 42 41 41 39 38 37
46 46 47 48 48 48 49 48 48 47 46 45 45 45 46 46 46 46 46 45 45 45 46 47 46 46 46 46 46 46 46 45 45 44 43 43 42 41 40 39 38 36 35
46 46 46 47 47 47 48 48 47 46 46 45 45 45 45 45 45 46 46 46 46 46 46 46 46 46 46 45 45 45 44 44 43 42 41 41 40 40 38 37 36 35 35
44 44 44 45 45 45 46 45 45 45 45 45 45 45 45 45 45 45 45 45 46 45 45 45 44 44 44 43 43 42 42 42 41 41 40 40 39 38 37 36 35 35 34
42 43 43 43 43 43 43 44 44 45 45 44 44 43 43 44 44 44 44 44 43 43 43 43 43 42 41 41 41 41 40 40 40 40 39 39 39 38 37 36 34 34 33
41 42 42 42 42 42 43 43 43 43 43 43 43 43 43 42 42 43 43 43 43 43 42 42 41 41 40 40 40 40 40 40 39 39 39 39 38 37 36 35 34 34 33
39 40 40 40 41 42 42 42 42 42 42 42 42 42 42 42 42 43 43 43 42 41 41 41 40 40 40 39 39 39 39 39 39 38 38 37 36 35 35 34 34 33 32
38 38 39 39 40 40 40 41 40 40 40 40 41 41 42 42 42 42 41 41 41 40 40 40 40 40 40 39 39 39 38 38 37 37 36 35 35 34 33 33 33 32 31
37 38 38 39 39 39 39 40 40 40 41 41 41 41 41 41 41 40 40 40 40 40 40 40 40 39 39 38 38 38 37 36 35 34 34 33 32 32 32 31 31 31 30
37 38 39 39 39 39 40 40 40 41 40 39 40 40 40 40 40 40 40 40 40 40 39 39 38 38 37 37 36 36 35 35 34 33 33 32 31 31 30 31 31 30 30
35 36 37 38 39 38 39 39 39 40 40 39 39 39 39 39 39 40 40 40 40 39 38 38 38 37 37 36 36 35 34 34 33 32 32 31 31 31 31 31 31 30 30
34 35 36 37 37 38 38 38 38 39 39 38 38 38 38 38 39 39 39 39 38 38 38 37 37 36 36 36 35 34 33 33 32 32 31 30 30 30 30 30 30 30 30
33 34 36 36 37 37 38 37 38 38 38 38 38 38 38 38 39 39 38 38 38 37 37 36 36 35 35 35 34 33 33 32 32 31 31 31 31 31 31 31 30 31 31
33 33 34 35 36 36 37 37 38 38 38 38 38 38 38 38 38 38 38 37 37 36 36 36 35 35 34 34 34 33 32 32 32 32 32 32 32 32 32 31 31 32 32
32 33 34 35 36 36 37 37 38 38 38 38 38 38 38 38 37 37 36 36 36 36 36 36 35 35 35 34 34 33 33 33 33 33 33 33 33 33 32 32 32 33 33
32 33 34 35 35 36 36 36 36 36 36 36 36 37 37 37 37 36 36 36 36 36 36 36 35 35 35 34 34 34 33 33 34 33 33 33 33 33 33 34 34 34 34
33 33 33 34 34 35 35 35 35 35 35 36 36 36 36 36 36 36 35 35 35 35 35 35 35 34 34 34 34 34 34 34 34 34 34 34 34 34 34 34 34 35 35
32 33 33 34 34 34 35 35 35 35 34 35 35 35 35 35 35 35 34 35 35 35 35 35 35 35 35 35 35 34 34 34 35 35 35 36 36 35 35 35 35 36 36
32 32 33 33 33 33 34 34 34 34 34 34 34 34 34 34 34 34 34 34 35 35 35 35 35 35 35 35 35 35 35 36 36 36 36 36 36 37 37 37 37 37 37
32 32 33 34 34 34 34 35 35 35 34 34 34 34 34 34 34 34 34 34 34 34 34 35 35 35 35 36 36 36 36 36 37 37 37 37 37 37 37 37 38 38 39
31 32 32 33 33 34 34 35 35 36 36 35 35 35 35 35 35 35 34 34 34 34 34 35 36 36 36 36 37 37 37 37 37 37 37 37 37 37 38 38 39 39 40
30 31 31 32 32 33 33 34 34 35 36 36 36 36 36 36 36 35 35 35 35 35 36 36 37 37 37 38 38 38 38 38 38 38 38 38 39 39 40 40 40 40 41
30 30 31 31 31 32 32 33 33 34 35 36 37 36 36 36 36 36 36 36 36 36 37 37 38 38 38 38 38 38 38 38 38 38 38 38 39 39 40 40 41 41 41
Wind_Direction
242 244 246 248 249 250 252 254 255 257 258 260 262 263 265 267 271 273 275 277 278 280 282 283 284 285 285 286 287 288 288 289 288 288 288 288 288 288 288 288 288 289 289
243 244 246 248 250 252 254 255 257 259 260 261 262 265 268 270 272 274 275 277 279 280 282 283 284 285 285 286 287 287 288 288 288 288 288 287 287 287 287 287 288 288 288
244 246 248 249 252 253 255 257 258 260 262 263 264 266 268 270 272 274 276 278 279 280 282 283 284 285 285 285 286 286 286 287 287 287 287 286 286 286 285 286 287 286 286
246 248 249 251 252 254 256 258 260 261 263 265 267 268 268 270 272 274 276 278 279 280 281 283 284 284 285 285 285 286 286 286 285 285 285 285 285 285 285 286 285 284 284
246 248 249 251 253 255 257 259 260 262 263 264 266 268 269 271 273 274 275 277 279 280 282 284 284 284 285 284 285 285 286 285 285 285 286 286 285 285 285 284 283 283 283
247 249 250 251 253 254 256 258 260 261 262 264 266 268 269 271 272 274 276 277 279 281 282 283 283 284 285 285 285 285 286 285 285 285 285 286 286 285 284 283 282 282 282
246 248 249 251 252 254 255 257 258 260 262 265 266 268 270 271 273 275 278 279 280 281 282 283 283 284 284 285 286 286 286 285 284 284 284 285 284 284 282 282 281 280 280
247 248 249 250 252 253 255 257 258 260 262 264 266 268 270 271 273 275 277 278 279 280 281 282 283 283 284 285 285 286 285 285 285 285 284 283 283 282 282 281 281 280 278
248 248 249 250 252 254 256 257 259 260 262 263 266 268 269 271 273 274 276 277 279 280 280 281 282 282 284 285 285 286 286 285 285 284 283 283 282 282 281 280 279 278 278
248 249 250 250 252 253 254 256 258 259 261 263 265 267 269 271 272 274 275 277 278 279 279 280 281 283 284 285 286 286 286 285 284 284 283 283 282 280 279 279 278 278 278
248 249 250 251 252 253 253 254 256 259 261 263 264 266 269 270 272 274 275 276 277 278 280 281 282 283 284 284 285 285 285 285 284 284 283 282 281 280 279 278 278 278 277
249 249 250 251 252 253 254 255 256 258 260 262 264 267 268 270 272 274 274 275 277 279 280 281 281 283 284 284 284 284 285 284 283 283 282 281 281 280 279 279 278 278 276
250 250 250 251 252 253 255 256 257 259 261 263 266 267 267 269 271 272 273 275 277 279 280 280 281 282 283 283 283 283 283 283 282 281 281 280 280 278 278 277 277 276 275
250 250 250 250 251 253 254 256 257 259 261 263 264 265 267 268 270 271 273 275 277 277 278 280 281 281 282 282 282 282 281 282 282 281 280 279 278 277 277 276 276 275 274
250 250 250 250 251 252 254 255 257 259 261 262 264 265 266 268 270 272 273 275 276 277 278 279 280 280 280 281 281 281 281 281 281 281 280 278 278 277 277 277 275 274 273
251 251 251 252 252 253 254 255 256 258 260 262 263 265 266 268 270 271 272 273 275 276 277 278 278 280 280 280 280 281 280 280 280 280 279 279 278 277 277 276 275 274 273
253 252 253 254 254 255 255 256 257 259 261 262 263 265 266 268 270 271 272 273 274 275 276 277 278 279 279 279 280 280 279 279 279 279 279 279 278 277 276 275 274 274 273
255 253 253 254 255 256 257 258 259 260 261 262 263 264 266 268 270 271 271 272 273 274 275 276 277 278 279 279 279 278 278 278 278 278 278 278 278 277 275 275 275 275 274
257 256 256 256 256 257 257 258 259 260 260 261 263 264 266 268 269 270 271 271 272 274 275 276 277 278 278 278 278 278 278 278 278 278 278 278 278 277 276 276 275 275 275
258 258 258 258 258 258 258 258 259 260 261 262 263 265 266 267 268 269 270 271 272 273 275 276 277 277 278 278 277 278 278 278 278 278 277 277 278 278 277 277 276 276 275
259 258 258 259 260 259 259 259 260 260 261 262 263 264 265 266 268 269 270 271 272 273 274 275 276 276 277 277 277 277 278 278 278 278 277 277 277 277 277 277 277 277 276
259 259 259 260 260 261 260 260 260 260 261 262 263 264 265 266 267 269 270 271 272 273 274 275 275 275 275 276 277 278 278 279 278 278 277 277 277 276 276 276 277 277 277
259 260 260 260 260 261 261 260 260 260 261 262 263 264 265 266 267 269 270 271 272 273 274 275 275 275 276 276 277 278 278 278 278 277 277 277 277 277 276 277 277 278 278
262 262 262 262 261 261 261 261 261 261 261 262 263 264 265 266 266 268 270 271 272 273 274 275 276 276 277 277 277 278 278 278 278 277 277 277 277 277 277 278 278 278 278
264 263 263 262 262 262 262 263 263 262 262 262 263 264 265 265 266 267 269 270 272 273 275 276 276 276 277 277 278 278 278 278 278 277 277 277 277 277 278 278 278 278 278
264 264 264 263 263 263 264 264 265 265 264 263 263 263 264 264 265 267 269 271 273 274 275 276 276 276 277 277 277 277 277 278 278 278 278 278 278 278 278 278 278 278 277